Terminal Aerodrome Forecast
Issued by NWS Greer, SC

Home | Current Version | Previous Version | Text Only | Print | Product List | Glossary On
Versions: 1 2 3 4 5 6 7 8 9 10 11 12 13 14 15 16 17 18 19 20 21 22 23 24 25 26 27 28 29 30 31 32 33 34 35 36 37 38 39 40 41 42 43 44 45
000
FTUS42 KGSP 180526
TAFCLT
TAF
KCLT 180526Z 1806/1906 34003KT P6SM FEW250
     FM181500 04005KT P6SM BKN140
     FM181700 14004KT P6SM BKN070
     FM182000 22005KT P6SM BKN070
     FM190300 33003KT P6SM BKN060=

USA.gov is the U.S. government's official web portal to all federal, state and local government web resources and services.